Location: Ballingbuur
(53.0000°N, 5.7667°E)
Time: 07:06:04
(UTC+00:00)

Cosmos 1408 Rocket - Pass Details

Date: 29 November 2020
Orbit: 600 x 631 km, 82.6° (Epoch: 23 January)

Event Time Altitude Azimuth Distance (km) Brightness Sun altitude
Rises 04:57:15 0° 192° (SSW) 2,913 7.0 -21.2°
Reaches altitude 10° 04:59:29 10° 193° (SSW) 2,009 6.1 -20.9°
Maximum altitude 05:03:57 82° 280° (W) 644 3.4 -20.2°
Drops below altitude 10° 05:08:26 10° 9° (N) 2,015 6.2 -19.5°
Sets 05:10:40 0° 11° (N) 2,923 7.0 -19.2°
